Weather History for PAWM - August, 2013

Change the Weather History Date:

Saturday, August 31, 2013

  Actual Average (PAKK) Record (PAKK)
Temperature  
Mean Temperature 45 °F -  
Max Temperature 51 °F 53 °F 64 °F (2001)
Min Temperature 39 °F 42 °F 33 °F (2014)
Degree Days  
Heating Degree Days 20    
Moisture  
Dew Point -13 °F    
Average Humidity 8    
Maximum Humidity 10    
Minimum Humidity 7    
Precipitation  
Precipitation 0.00 in - - ()
Sea Level Pressure  
Sea Level Pressure 29.92 in    
Wind  
Wind Speed 7 mph (ENE)    
Max Wind Speed 12 mph    
Max Gust Speed 20 mph    
Visibility 10 miles    
Events Rain    
Averages and records for this station are not official NWS values.
T = Trace of Precipitation, MM = Missing Value Source: NWS Daily Summary

Daily Weather History Graph

Daily Weather History Graph

Search for Another Location

Airport or City:

Trip Planner

Search our weather history database for the weather conditions in past years. The results will help you decide how hot, cold, wet, or windy it might be!

Date:

Astronomy

Aug. 31, 2013 Rise Set
Actual Time 7:32 AM AKDT 10:12 PM AKDT
Civil Twilight 6:37 AM AKDT 11:07 PM AKDT
Nautical Twilight 5:19 AM AKDT 12:24 AM AKDT
Astronomical Twilight 3:26 AM AKDT 2:21 AM AKDT
Moon 2:01 AM AKDT (8/31) 8:18 PM AKDT (8/31)
Length of Visible Light 16h 30m
Length of Day
14h 40m
Waning Crescent, 20% of the Moon is Illuminated
Aug 31
Waning Crescent
Sep 5
New
Sep 12
First Quarter
Sep 19
Full
Sep 26
Last Quarter

Hourly Weather History & Observations

Time (AKDT) Temp. Windchill Dew Point Humidity Pressure Visibility Wind Dir Wind Speed Gust Speed Precip Events Conditions
12:48 AM 42.8 °F 38.6 °F -16.6 °F 8% 29.96 in 10.0 mi East 6.9 mph - N/A   Overcast
12:58 AM 43.0 °F 38.8 °F -16.1 °F 8% 30.00 in 10.0 mi East 6.9 mph - N/A   Overcast
1:58 AM 43.0 °F 39.5 °F -16.1 °F 8% 29.99 in 10.0 mi ENE 5.8 mph - N/A   Overcast
2:49 AM 42.8 °F 39.3 °F -16.6 °F 8% 29.95 in 10.0 mi NE 5.8 mph - N/A   Overcast
2:58 AM 43.0 °F 40.3 °F -17.0 °F 7% 29.98 in 10.0 mi NNE 4.6 mph - N/A   Overcast
3:12 AM 42.8 °F 39.3 °F -16.6 °F 8% 29.95 in 10.0 mi NNE 5.8 mph - N/A   Overcast
3:46 AM 42.8 °F 39.3 °F -16.6 °F 8% 29.94 in 10.0 mi North 5.8 mph - N/A   Overcast
3:58 AM 42.1 °F 37.7 °F -17.0 °F 8% 29.97 in 10.0 mi North 6.9 mph - N/A   Overcast
4:58 AM 41.0 °F 36.4 °F -18.0 °F 8% 29.96 in 10.0 mi NNE 6.9 mph - N/A   Overcast
5:58 AM 39.9 °F 35.1 °F -18.9 °F 8% 29.95 in 10.0 mi NNE 6.9 mph - N/A   Mostly Cloudy
6:58 AM 39.9 °F 36.7 °F -20.0 °F 7% 29.95 in 10.0 mi NE 4.6 mph - N/A   Overcast
7:58 AM 39.9 °F 34.5 °F -20.0 °F 7% 29.94 in 10.0 mi NE 8.1 mph - 0.00 in Rain Light Rain
8:34 AM 39.2 °F 34.2 °F -20.2 °F 7% 29.90 in 8.0 mi NE 6.9 mph - 0.00 in Rain Light Rain
8:41 AM 39.2 °F 33.6 °F -20.2 °F 7% 29.90 in 8.0 mi NE 8.1 mph - 0.00 in Rain Light Rain
8:58 AM 39.9 °F 35.1 °F -20.0 °F 7% 29.94 in 10.0 mi NE 6.9 mph - 0.00 in   Overcast
9:58 AM 42.1 °F 38.4 °F -17.0 °F 8% 29.94 in 10.0 mi NE 5.8 mph - N/A   Overcast
10:58 AM 46.0 °F 42.5 °F -11.0 °F 9% 29.93 in 10.0 mi NE 6.9 mph - N/A   Overcast
11:45 AM 46.4 °F 41.9 °F -11.2 °F 9% 29.89 in 10.0 mi East 9.2 mph - N/A   Overcast
11:58 AM 46.9 °F - -11.0 °F 9% 29.93 in 10.0 mi East 4.6 mph - N/A   Overcast
12:31 PM 50.0 °F - -7.6 °F 9% 29.89 in 10.0 mi ESE 10.4 mph - N/A   Overcast
12:46 PM 48.2 °F - -9.4 °F 9% 29.89 in 10.0 mi East 11.5 mph 19.6 mph N/A   Overcast
12:58 PM 48.9 °F - -9.0 °F 9% 29.93 in 10.0 mi East 9.2 mph - N/A   Overcast
1:45 PM 50.0 °F - -7.6 °F 9% 29.89 in 10.0 mi ESE 11.5 mph - N/A   Overcast
1:58 PM 50.0 °F - -7.1 °F 9% 29.92 in 10.0 mi ESE 11.5 mph - N/A   Overcast
2:57 PM 50.0 °F - -8.0 °F 9% 29.92 in 10.0 mi East 8.1 mph - N/A   Overcast
3:07 PM 50.0 °F - -7.6 °F 9% 29.88 in 10.0 mi ESE 8.1 mph - N/A   Overcast
3:11 PM 48.2 °F - -7.6 °F 10% 29.88 in 10.0 mi ESE 10.4 mph - N/A   Overcast
3:19 PM 48.2 °F - -9.4 °F 9% 29.88 in 10.0 mi ESE 6.9 mph - N/A   Overcast
3:58 PM 50.0 °F - -8.0 °F 9% 29.91 in 9.0 mi East 9.2 mph - N/A   Overcast
4:58 PM 51.1 °F - -6.0 °F 9% 29.90 in 10.0 mi East 8.1 mph - N/A   Overcast
5:58 PM 51.1 °F - -7.1 °F 9% 29.89 in 10.0 mi East 9.2 mph - N/A   Partly Cloudy
6:58 PM 51.1 °F - -6.0 °F 9% 29.88 in 10.0 mi East 8.1 mph - N/A   Mostly Cloudy
7:58 PM 50.0 °F - -8.0 °F 9% 29.87 in 10.0 mi SE 4.6 mph - N/A   Overcast
8:58 PM 48.9 °F - -9.0 °F 9% 29.87 in 10.0 mi ESE 5.8 mph - N/A   Overcast
9:58 PM 48.0 °F - -9.9 °F 9% 29.87 in 10.0 mi ESE 6.9 mph - N/A   Overcast
10:58 PM 46.9 °F - -11.9 °F 8% 29.87 in 10.0 mi East 8.1 mph - N/A   Overcast
11:58 PM 46.0 °F 43.1 °F -13.0 °F 8% 29.86 in 10.0 mi ENE 5.8 mph - N/A   Overcast